[[{"header":{"parameterUnit":"m.s-1","parameterCategory":1,"la1":30.2991,"la2":30.254,"lo1":-89.0895,"lo2":-89.0444,"dx":0.0017,"dy":0.0017,"nx":28,"ny":28,"refTime":"2022-11-16T03:00:00:Z","depth":0,"parameterNumber":2,"parameterNumberName":"U-component_of_WINDS"},"data":[0,0,0,0,0,0,0,0,0,0,0,0,0,0,0,0,0,0,0,0,0,0,0,0,0,0,0,0,0,0,0,0,0,0,0,0,0,0,0,0,0,0,0,0,0,0,0,0,0,0,0,0,0,0,0,0,0,0,-0.1791,-0.1792,0,-0.1879,-0.188,-0.1881,-0.1867,-0.1866,-0.1864,-0.1863,-0.1956,-0.196,-0.1964,0,0,0,0,0,0,0,0,0,0,0,0,0,-0.1613,-0.1617,-0.1791,-0.1792,-0.1793,-0.1879,-0.188,-0.1881,-0.1868,-0.1866,-0.1864,-0.1862,-0.1955,-0.196,-0.1964,0,0,0,0,0,0,0,0,0,0,0,0,0,-0.1695,-0.1618,-0.1791,-0.1796,-0.1798,-0.1878,-0.188,-0.1881,-0.1868,-0.1866,-0.1863,-0.1861,-0.1954,-0.1959,-0.1965,-0.2046,0,0,-0.1983,-0.1985,0,0,0,0,0,0,0,0,-0.169,-0.1701,-0.1794,-0.1796,-0.1798,-0.186,-0.1852,-0.1937,-0.1868,-0.1841,-0.1863,-0.186,-0.1926,-0.1934,-0.1956,-0.2051,-0.2055,-0.1983,-0.1987,-0.1989,-0.1991,0,0,0,0,0,0,0,-0.1685,-0.1698,-0.1826,-0.1796,-0.1798,-0.1795,-0.1805,-0.1868,-0.1896,-0.1844,-0.1843,-0.1853,-0.1927,-0.195,-0.1958,-0.2056,-0.1983,-0.1988,-0.1992,-0.1994,-0.2222,-0.2225,0,0,0,0,0,0,-0.1677,-0.1693,-0.1823,-0.1828,-0.1737,-0.18,-0.1811,-0.1842,-0.1895,-0.1901,-0.1855,-0.1852,-0.1941,-0.1951,-0.1961,-0.206,-0.1989,-0.1995,-0.1998,-0.222,-0.2223,-0.2225,0,0,0,0,0,0,-0.1673,-0.1689,-0.1819,-0.176,-0.1777,-0.1806,-0.1841,-0.1845,-0.1869,-0.1903,-0.1909,-0.1874,-0.194,-0.1953,-0.2025,-0.2064,-0.1998,-0.2003,-0.2217,-0.2221,-0.2224,-0.2259,0,0,0,0,0,0,-0.1668,-0.1687,-0.1718,-0.1761,-0.178,-0.1881,-0.1844,-0.1848,-0.1878,-0.1875,-0.1922,-0.1928,-0.1939,-0.2016,-0.2031,-0.207,-0.2007,-0.2213,-0.2218,-0.2223,-0.2255,-0.2264,-0.2272,0,0,0,0,0,-0.1662,-0.1725,-0.172,-0.1736,-0.1819,-0.1884,-0.1894,-0.1905,-0.1881,-0.1913,-0.1935,-0.1927,-0.2056,-0.2024,-0.204,-0.2082,-0.2211,-0.2217,-0.2223,-0.2251,-0.2262,-0.2271,0,0,0,0,0,0,-0.1688,-0.1731,-0.1726,-0.1805,-0.184,-0.1881,-0.1922,-0.1916,-0.196,-0.1956,-0.1968,-0.1979,-0.2052,-0.2074,-0.2037,-0.2163,-0.2131,-0.214,-0.2147,-0.2157,-0.2166,-0.216,-0.2012,0,0,0,0,0,-0.1702,-0.175,-0.1786,-0.1852,-0.187,-0.1893,-0.1921,-0.1926,-0.1964,-0.1979,-0.2007,-0.2045,-0.2094,-0.2127,-0.2174,-0.2257,-0.2268,-0.2294,-0.2302,-0.2309,-0.2317,-0.2363,-0.2376,-0.2244,-0.2244,-0.2244,0,0,-0.1734,-0.1763,-0.1793,-0.1858,-0.1886,-0.1937,-0.1906,-0.196,-0.1998,-0.1988,-0.2058,-0.2079,-0.2122,-0.22,-0.2236,-0.2221,-0.2355,-0.2316,-0.2321,-0.2326,-0.237,-0.2383,-0.2394,-0.2248,-0.2247,-0.2247,0,0,-0.1817,-0.1844,-0.1902,-0.193,-0.1973,-0.1987,-0.2001,-0.2042,-0.2056,-0.2125,-0.2119,-0.2164,-0.2248,-0.228,-0.2307,-0.2399,-0.2393,-0.2414,-0.2459,-0.2504,-0.2514,-0.2523,-0.2558,-0.257,-0.2422,-0.2422,-0.2422,0,-0.1851,-0.1926,-0.1933,-0.1988,-0.2017,-0.2008,-0.2068,-0.2096,-0.2152,-0.2173,-0.2154,-0.2259,-0.2288,-0.2373,-0.2396,-0.2417,-0.2434,-0.241,-0.2511,-0.2521,-0.253,-0.2563,-0.2576,-0.2425,-0.2424,-0.2424,-0.2424,0,-0.1966,-0.2018,-0.206,-0.2113,-0.2147,-0.2204,-0.2221,-0.2254,-0.2255,-0.2271,-0.2342,-0.2375,-0.2429,-0.2449,-0.2452,-0.2535,-0.2525,-0.2508,-0.2476,-0.2545,-0.2576,-0.2588,-0.2428,-0.2427,-0.2426,-0.2426,0,0,-0.2071,-0.2126,-0.2142,-0.2166,-0.2211,-0.2251,-0.2308,-0.2359,-0.2388,-0.2426,-0.2475,-0.2545,-0.2531,-0.2561,-0.2566,-0.2605,-0.2678,-0.2585,-0.2586,-0.2602,-0.2773,-0.2787,-0.2801,-0.2673,-0.2675,-0.2677,-0.277,0,-0.216,-0.2259,-0.2267,-0.2357,-0.2405,-0.2396,-0.2446,-0.2479,-0.2495,-0.2539,-0.2557,-0.2607,-0.2583,-0.2602,-0.2639,-0.2661,-0.2713,-0.2654,-0.272,-0.2722,-0.2712,-0.2817,-0.2832,-0.2918,-0.2782,-0.2784,-0.2786,0,-0.2278,-0.2319,-0.2413,-0.2451,-0.2471,-0.2516,-0.2563,-0.2604,-0.2642,-0.2651,-0.2684,-0.2684,-0.2742,-0.2706,-0.2787,-0.2747,-0.2774,-0.2788,-0.2792,-0.2801,-0.276,-0.2831,-0.2946,-0.2959,-0.2805,-0.2803,-0.2802,0,-0.2347,-0.2425,-0.2492,-0.2512,-0.2558,-0.2589,-0.261,-0.2645,-0.2675,-0.2716,-0.2736,-0.2784,-0.2811,-0.2848,-0.2861,-0.2833,-0.2942,-0.2907,-0.2953,-0.2953,-0.2979,-0.2977,-0.3102,-0.2992,-0.2992,-0.2992,-0.2992,0,-0.2447,-0.2506,-0.2523,-0.2565,-0.263,-0.2637,-0.2702,-0.2721,-0.2752,-0.2797,-0.2792,-0.2835,-0.2848,-0.2893,-0.2903,-0.297,-0.2981,-0.2991,-0.2994,-0.2993,-0.2992,-0.3013,-0.3008,-0.2995,-0.2994,-0.2994,-0.2993,0,-0.2536,-0.255,-0.2623,-0.2659,-0.2669,-0.2716,-0.2748,-0.2788,-0.2802,-0.2859,-0.2873,-0.2896,-0.2949,-0.2964,-0.3028,-0.3034,-0.3113,-0.3109,-0.3101,-0.3101,-0.3147,-0.3144,-0.3291,-0.3312,-0.3187,-0.3188,-0.3189,0,-0.2601,-0.2645,-0.2686,-0.2715,-0.2736,-0.2784,-0.2814,-0.2823,-0.2855,-0.29,-0.2935,-0.2986,-0.3028,-0.3113,-0.3136,-0.3185,-0.3183,-0.3231,-0.3191,-0.3189,-0.3186,-0.3184,-0.3189,-0.324,-0.3241,-0.3242,-0.3243,0,-0.2713,-0.2717,-0.2761,-0.2807,-0.2843,-0.2879,-0.2915,-0.2939,-0.2953,-0.2989,-0.3042,-0.3074,-0.3138,-0.319,-0.3239,-0.3261,-0.3255,-0.3255,-0.3269,-0.327,-0.3264,-0.327,-0.3124,-0.3253,-0.3252,-0.3251,-0.3251,-0.325,-0.2793,-0.2833,-0.2867,-0.2916,-0.2942,-0.2975,-0.3015,-0.3033,-0.3077,-0.3129,-0.3131,-0.3189,-0.3225,-0.329,-0.3314,-0.336,-0.3346,-0.3365,-0.3371,-0.3376,-0.3381,-0.3254,-0.3369,-0.3368,-0.3368,-0.3368,-0.3368,0,-0.2907,-0.2928,-0.2973,-0.3022,-0.306,-0.3048,-0.3086,-0.3119,-0.317,-0.3203,-0.3244,-0.3305,-0.3355,-0.3381,-0.343,-0.3462,-0.3461,-0.3475,-0.3474,-0.3479,-0.3389,-0.3374,-0.3475,-0.3475,-0.3475,-0.3475,-0.3475,-0.3475,-0.2971,-0.3038,-0.3046,-0.3125,-0.3146,-0.3202,-0.3225,-0.3255,-0.3281,-0.335,-0.339,-0.3406,-0.3437,-0.3488,-0.3533,-0.354,-0.3559,-0.3576,-0.3581,-0.3497,-0.3486,-0.3475,-0.3461,-0.3579,-0.3579,-0.3667,-0.3668,-0.3668]},{"header":{"parameterUnit":"m.s-1","parameterCategory":1,"la1":30.2991,"la2":30.254,"lo1":-89.0895,"lo2":-89.0444,"dx":0.0017,"dy":0.0017,"nx":28,"ny":28,"refTime":"2022-11-16T03:00:00:Z","depth":0,"parameterNumber":3,"parameterNumberName":"V-component_of_WINDS"},"data":[0,0,0,0,0,0,0,0,0,0,0,0,0,0,0,0,0,0,0,0,0,0,0,0,0,0,0,0,0,0,0,0,0,0,0,0,0,0,0,0,0,0,0,0,0,0,0,0,0,0,0,0,0,0,0,0,0,0,-6.9141,-6.9143,0,-6.9261,-6.9262,-6.9264,-6.9163,-6.9159,-6.9155,-6.9151,-6.9269,-6.9276,-6.9283,0,0,0,0,0,0,0,0,0,0,0,0,0,-6.8821,-6.8827,-6.9141,-6.9143,-6.9144,-6.9261,-6.9262,-6.9264,-6.9164,-6.9159,-6.9154,-6.9149,-6.9267,-6.9275,-6.9284,0,0,0,0,0,0,0,0,0,0,0,0,0,-6.8952,-6.8829,-6.9141,-6.9108,-6.9107,-6.926,-6.9262,-6.9264,-6.9165,-6.9159,-6.9152,-6.9146,-6.9264,-6.9274,-6.9285,-6.9476,0,0,-6.9317,-6.9322,0,0,0,0,0,0,0,0,-6.8945,-6.8964,-6.9112,-6.9111,-6.9109,-6.9191,-6.9193,-6.9335,-6.9167,-6.9143,-6.9151,-6.9143,-6.9248,-6.9259,-6.9295,-6.9481,-6.9486,-6.9318,-6.9324,-6.9329,-6.9332,0,0,0,0,0,0,0,-6.8936,-6.8958,-6.9188,-6.9114,-6.9112,-6.9086,-6.9098,-6.9219,-6.9229,-6.9144,-6.9137,-6.9153,-6.9246,-6.9286,-6.9298,-6.9488,-6.9318,-6.9327,-6.9334,-6.9338,-6.9835,-6.9841,0,0,0,0,0,0,-6.8931,-6.8951,-6.9184,-6.9192,-6.901,-6.9097,-6.911,-6.9171,-6.9227,-6.923,-6.9158,-6.9148,-6.9271,-6.9285,-6.9301,-6.9528,-6.9329,-6.9339,-6.9345,-6.9828,-6.9836,-6.9844,0,0,0,0,0,0,-6.8924,-6.8952,-6.918,-6.907,-6.9097,-6.9109,-6.9178,-6.9177,-6.9216,-6.9238,-6.9239,-6.9197,-6.9266,-6.9286,-6.9433,-6.9531,-6.9344,-6.9353,-6.982,-6.9831,-6.984,-6.9983,0,0,0,0,0,0,-6.8915,-6.8951,-6.9025,-6.9072,-6.9103,-6.9312,-6.9184,-6.9183,-6.9235,-6.9223,-6.9275,-6.9277,-6.9263,-6.9418,-6.9444,-6.9542,-6.9361,-6.9811,-6.9825,-6.9837,-6.997,-6.9997,-7.0021,0,0,0,0,0,-6.8904,-6.906,-6.9029,-6.9058,-6.9196,-6.9317,-6.9335,-6.9316,-6.9243,-6.9317,-6.9331,-6.9276,-6.9516,-6.9434,-6.9462,-6.9565,-6.9805,-6.9821,-6.9836,-6.9959,-6.9992,-7.002,0,0,0,0,0,0,-6.9022,-6.9065,-6.9032,-6.9207,-6.926,-6.93,-6.9393,-6.9352,-6.9425,-6.941,-6.9383,-6.9395,-6.955,-6.9571,-6.9479,-6.9752,-6.9648,-6.967,-6.9732,-6.9764,-6.9789,-6.978,-6.937,0,0,0,0,0,-6.9068,-6.9165,-6.9197,-6.9348,-6.9377,-6.9381,-6.9433,-6.9414,-6.9466,-6.9487,-6.9512,-6.9564,-6.965,-6.9708,-6.9789,-6.9972,-6.9982,-7.0057,-7.0082,-7.0103,-7.0122,-7.0219,-7.0253,-6.9894,-6.9894,-6.9894,0,0,-6.9165,-6.9201,-6.9263,-6.9373,-6.9411,-6.951,-6.94,-6.9509,-6.9582,-6.9503,-6.9644,-6.9664,-6.9719,-6.9885,-6.9959,-6.9908,-7.0223,-7.0122,-7.0139,-7.0147,-7.0239,-7.0273,-7.0303,-6.9905,-6.9903,-6.9901,0,0,-6.9392,-6.9429,-6.9559,-6.96,-6.966,-6.9661,-6.9693,-6.974,-6.975,-6.9891,-6.9834,-6.9919,-7.007,-7.0111,-7.0152,-7.0395,-7.0346,-7.0422,-7.0554,-7.0649,-7.0678,-7.0702,-7.0788,-7.0819,-7.0441,-7.0441,-7.0441,0,-6.9504,-6.9653,-6.9631,-6.9745,-6.9795,-6.9729,-6.986,-6.99,-6.9983,-7.0018,-6.996,-7.0147,-7.018,-7.0354,-7.0413,-7.0449,-7.0482,-7.0416,-7.0676,-7.07,-7.0723,-7.0805,-7.0837,-7.045,-7.0449,-7.0448,-7.0447,0,-6.9788,-6.9892,-6.9989,-7.0073,-7.0133,-7.0255,-7.025,-7.0313,-7.0289,-7.0296,-7.0439,-7.0476,-7.0563,-7.0603,-7.058,-7.0774,-7.074,-7.068,-7.0575,-7.0767,-7.0843,-7.0874,-7.0462,-7.0459,-7.0457,-7.0454,0,0,-7.0093,-7.0162,-7.0198,-7.0235,-7.0296,-7.0375,-7.0493,-7.0579,-7.0634,-7.0693,-7.079,-7.0919,-7.0863,-7.091,-7.089,-7.0974,-7.1163,-7.0902,-7.0903,-7.0949,-7.1378,-7.1423,-7.146,-7.1131,-7.1137,-7.1141,-7.1373,0,-7.0322,-7.053,-7.0513,-7.0708,-7.0803,-7.0742,-7.0844,-7.0892,-7.0901,-7.0982,-7.0991,-7.1083,-7.1002,-7.103,-7.111,-7.1123,-7.1248,-7.1106,-7.122,-7.1224,-7.1208,-7.15,-7.1548,-7.1765,-7.1402,-7.1407,-7.1411,0,-7.0618,-7.0688,-7.0894,-7.094,-7.0979,-7.1072,-7.1149,-7.1228,-7.1279,-7.128,-7.1332,-7.1299,-7.1416,-7.1309,-7.1469,-7.1373,-7.1418,-7.1431,-7.1439,-7.1449,-7.133,-7.1517,-7.1834,-7.1867,-7.1458,-7.1454,-7.1451,0,-7.0819,-7.0966,-7.1107,-7.114,-7.1197,-7.1264,-7.1291,-7.1336,-7.1389,-7.1456,-7.149,-7.157,-7.1613,-7.1675,-7.1663,-7.1586,-7.1826,-7.1718,-7.1829,-7.1829,-7.1882,-7.1879,-7.2211,-7.1912,-7.1912,-7.1911,-7.191,0,-7.1077,-7.1205,-7.1198,-7.1286,-7.1427,-7.1405,-7.1545,-7.1563,-7.1604,-7.1692,-7.1643,-7.1727,-7.1706,-7.1788,-7.1779,-7.1913,-7.1933,-7.1936,-7.1932,-7.1941,-7.194,-7.197,-7.1955,-7.1919,-7.1918,-7.1916,-7.1914,0,-7.1327,-7.1327,-7.1478,-7.152,-7.1533,-7.1635,-7.167,-7.1751,-7.1756,-7.1869,-7.1894,-7.1902,-7.1996,-7.199,-7.2096,-7.209,-7.2255,-7.2233,-7.2238,-7.2233,-7.2344,-7.2334,-7.2707,-7.2754,-7.2425,-7.2428,-7.2431,0,-7.1491,-7.1589,-7.1641,-7.1698,-7.1729,-7.182,-7.1874,-7.1856,-7.1914,-7.198,-7.2053,-7.2143,-7.2215,-7.2368,-7.2382,-7.2462,-7.2442,-7.2567,-7.2454,-7.2459,-7.2444,-7.2438,-7.2447,-7.2589,-7.2593,-7.2596,-7.2599,0,-7.1784,-7.1779,-7.186,-7.1941,-7.2007,-7.207,-7.2126,-7.2175,-7.2162,-7.223,-7.2326,-7.2382,-7.249,-7.258,-7.2657,-7.2682,-7.2639,-7.2634,-7.2664,-7.2674,-7.2673,-7.2675,-7.2299,-7.2626,-7.2623,-7.2621,-7.262,-7.2619,-7.1995,-7.2079,-7.2129,-7.222,-7.2261,-7.2315,-7.2394,-7.2409,-7.249,-7.2578,-7.2562,-7.267,-7.2718,-7.2817,-7.2849,-7.2932,-7.2887,-7.2931,-7.2942,-7.2953,-7.2965,-7.266,-7.2946,-7.2945,-7.2945,-7.2944,-7.2943,0,-7.2285,-7.2314,-7.2398,-7.248,-7.2552,-7.2506,-7.2566,-7.2628,-7.2725,-7.2774,-7.2845,-7.2955,-7.3042,-7.3063,-7.3145,-7.3208,-7.319,-7.323,-7.3225,-7.3231,-7.3001,-7.2967,-7.3243,-7.3243,-7.3243,-7.3243,-7.3243,-7.3243,-7.2444,-7.2583,-7.2584,-7.2741,-7.2769,-7.2876,-7.2914,-7.2963,-7.3002,-7.3129,-7.3201,-7.3214,-7.3251,-7.3336,-7.3413,-7.3416,-7.3449,-7.3497,-7.3493,-7.3278,-7.3248,-7.3219,-7.3187,-7.3505,-7.3505,-7.3716,-7.3718,-7.372]}]]